Belize, Belize

12:00 AM CST on August 22, 2017 (GMT -0600)
Philip S W Goldson International

Weather History for MZBZ - October, 2013

Change the Weather History Date:

Monday, October 7, 2013

  Actual Average Record
Temperature  
Mean Temperature 81 °F -  
Max Temperature 86 °F 87 °F 92 °F (2015)
Min Temperature 76 °F 73 °F 68 °F (2010)
Cooling Degree Days 16    
Growing Degree Days 31 (Base 50)    
Moisture  
Dew Point 77 °F    
Average Humidity 88    
Maximum Humidity 100    
Minimum Humidity 69    
Precipitation  
Precipitation 0.39 in 0.31 in - ()
Sea Level Pressure  
Sea Level Pressure 29.89 in    
Wind  
Wind Speed 2 mph ()    
Max Wind Speed 8 mph    
Max Gust Speed -    
Visibility 8.0 miles    
Events Rain , Thunderstorm    
Averages and records for this station are not official NWS values.
T = Trace of Precipitation, MM = Missing Value Source: Averaged Metar Reports

Daily Weather History Graph

Daily Weather History Graph

Search for Another Location

Airport or City:

Trip Planner

Search our weather history database for the weather conditions in past years. The results will help you decide how hot, cold, wet, or windy it might be!

Date:

Astronomy

Oct. 07, 2013 Rise Set
Actual Time 5:44 AM CST 5:36 PM CST
Civil Twilight 5:22 AM CST 5:58 PM CST
Nautical Twilight 4:57 AM CST 6:23 PM CST
Astronomical Twilight 4:32 AM CST 6:49 PM CST
Moon 8:08 AM CST (10/7) 7:49 PM CST (10/7)
Length of Visible Light 12h 35m
Length of Day
11h 52m
Waxing Crescent, 9% of the Moon is Illuminated
Oct 7
Waxing Crescent
Oct 11
First Quarter
Oct 18
Full
Oct 26
Last Quarter
Nov 3
New

Hourly Weather History & Observations

Time (CST) Temp. Heat Index Dew Point Humidity Pressure Visibility Wind Dir Wind Speed Gust Speed Precip Events Conditions
12:00 AM 83 °F - 78 °F 82% 29.90 in 12 mi East 5.8 mph - -   Partly Cloudy
3:00 AM 80 °F - 79 °F 94% 29.88 in 5 mi Calm Calm - - Rain , Thunderstorm Thunderstorms and Rain
5:00 AM 77.0 °F - 75.2 °F 94% 29.87 in 6.2 mi SW 3.5 mph - N/A   Mostly Cloudy
6:00 AM 76 °F - 75 °F 97% 29.88 in 7 mi Calm Calm - - Thunderstorm Thunderstorm
6:00 AM 77.0 °F - 75.2 °F 94% 29.86 in 6.2 mi Calm Calm - N/A Thunderstorm Thunderstorm
6:33 AM 77.0 °F - 75.2 °F 94% 29.88 in 6.2 mi Calm Calm - N/A   Mostly Cloudy
7:00 AM 77.0 °F - 77.0 °F 100% 29.90 in 6.2 mi Calm Calm - N/A   Mostly Cloudy
8:00 AM 78.8 °F - 77.0 °F 94% 29.92 in 6.2 mi SW 6.9 mph - N/A   Mostly Cloudy
9:00 AM 77 °F - 76 °F 95% 29.95 in 12 mi NNW 3.5 mph - -   Partly Cloudy
9:00 AM 77.0 °F - 75.2 °F 94% 29.94 in 6.2 mi NNW 3.5 mph - N/A   Mostly Cloudy
10:00 AM 78.8 °F - 77.0 °F 94% 29.94 in 6.2 mi NNW 2.3 mph - N/A   Mostly Cloudy
11:00 AM 78.8 °F - 77.0 °F 94% 29.92 in 6.2 mi Calm Calm - N/A   Mostly Cloudy
12:00 PM 81 °F - 77 °F 85% 29.90 in 16 mi Calm Calm - -   Partly Cloudy
12:00 PM 80.6 °F 87.1 °F 77.0 °F 89% 29.91 in 6.2 mi Calm Calm - N/A   Mostly Cloudy
1:00 PM 82.4 °F 90.9 °F 77.0 °F 84% 29.90 in 6.2 mi West 2.3 mph - N/A   Mostly Cloudy
2:00 PM 84.2 °F 94.1 °F 77.0 °F 79% 29.85 in 6.2 mi West 1.2 mph - N/A   Mostly Cloudy
3:00 PM 86 °F - 77 °F 69% 29.84 in 16 mi NNE 1.2 mph - -   Mostly Cloudy
3:00 PM 86.0 °F 96.9 °F 77.0 °F 74% 29.83 in 6.2 mi NNE 1.2 mph - N/A   Mostly Cloudy
4:00 PM 84.2 °F 94.1 °F 77.0 °F 79% 29.84 in 6.2 mi ENE 8.1 mph - N/A   Mostly Cloudy
5:00 PM 84.2 °F 96.1 °F 78.8 °F 84% 29.86 in 6.2 mi NE 5.8 mph - N/A   Mostly Cloudy
6:00 PM 82 °F - 77 °F 81% 29.87 in 12 mi North 4.6 mph - -   Scattered Clouds
6:00 PM 82.4 °F 90.9 °F 77.0 °F 84% 29.87 in 6.2 mi North 4.6 mph - N/A   Mostly Cloudy
9:00 PM 79 °F - 77 °F 92% 29.95 in 12 mi North 4.6 mph - -